Home   Weather   Dinslaken   Past weeks

Flag for Germany Past Weather in Dinslaken, North Rhine-Westphalia, Germany — Yesterday and Last 2 Weeks

Now
54 °F

Clear.


Feels Like: 50 °F
Forecast: 54 / 66 °F
Wind: 12 mph from Southwest

Location: Duesseldorf

Current Time: Aug 19, 2017 at 3:58:47 am

Latest Report: Aug 19, 2017 at 3:20 am


Visibility: 10 mi

Pressure: 29.98 "Hg

Humidity: 94%

Dew Point: 52 °F

Location of DinslakenLocation

Past Weather in Dinslaken — Graph

°F

Dinslaken Temperature Yesterday

Maximum temperature yesterday: 68 °F (at 2:20 pm)
Minimum temperature yesterday: 57 °F (at 11:20 pm)
Average temperature yesterday: 65 °F

High & Low Weather Summary for the Past Weeks

 TemperatureHumidityPressure
High79 °F (Aug 14, 4:50 pm)100% (Aug 5, 6:50 am)30.24 "Hg (Aug 5, 6:50 am)
Low52 °F (Aug 6, 4:20 am)39% (Aug 7, 2:50 pm)29.74 "Hg (Aug 8, 1:50 pm)
Average64 °F79%30.02 "Hg
* Reported Aug 4 2:20 am — Aug 19 2:50 am, Dinslaken. Weather by CustomWeather, © 2017

Note: Actual official high and low records may vary slightly from our data, if they occured in-between our weather recording intervals... More about our weather records

Advertising

Dinslaken Weather History for the Previous 24 Hours

Scroll right to see more
 ConditionsComfort  
Time TempWeatherWind HumidityBarometerVisibility
2:50 am
Sat, Aug 19
54 °FClear.12 mph94%29.98 "Hg10 mi
2:20 am55 °FClear.12 mph88%29.98 "Hg10 mi
1:50 am55 °FClear.12 mph88%29.95 "Hg10 mi
1:20 am55 °FClear.9 mph88%29.95 "Hg10 mi
12:50 am55 °FClear.10 mph94%29.95 "Hg10 mi
12:20 am57 °FClear.10 mph88%29.95 "Hg10 mi
11:50 pm
Fri, Aug 18
57 °FClear.10 mph88%29.95 "Hg10 mi
11:20 pm57 °FClear.10 mph94%29.92 "Hg10 mi
10:50 pm61 °FClear.12 mph88%29.92 "Hg10 mi
10:20 pm61 °FPartly cloudy.8 mph88%29.92 "HgN/A
9:57 pm63 °FSprinkles. Passing clouds.18 mph83%29.92 "HgN/A
9:20 pm64 °FScattered showers. Partly cloudy.10 mph83%29.92 "HgN/A
8:50 pm64 °FLight rain. Partly cloudy.10 mph83%29.89 "HgN/A
8:20 pm64 °FPartly sunny.12 mph83%29.86 "HgN/A
7:50 pm64 °FPartly sunny.10 mph83%29.89 "HgN/A
7:20 pm64 °FPartly sunny.9 mph78%29.89 "HgN/A
6:50 pm66 °FPartly sunny.10 mph73%29.89 "HgN/A
6:20 pm66 °FBroken clouds.12 mph73%29.86 "HgN/A
5:50 pm66 °FBroken clouds.9 mph78%29.89 "HgN/A
5:20 pm66 °FBroken clouds.7 mph78%29.89 "HgN/A
4:50 pm66 °FScattered showers. Broken clouds.15 mph78%29.89 "HgN/A
4:20 pm68 °FBroken clouds.10 mph83%29.86 "HgN/A
3:50 pm68 °FPartly sunny.9 mph83%29.86 "HgN/A
3:20 pm68 °FPartly sunny.7 mph83%29.89 "HgN/A
2:50 pm68 °FPartly sunny.6 mph83%29.89 "HgN/A
2:20 pm68 °FBroken clouds.8 mph88%29.89 "HgN/A
1:50 pm66 °FLight rain. Broken clouds.6 mph88%29.89 "HgN/A
1:20 pm66 °FLight rain. Partly sunny.7 mph88%29.89 "HgN/A
12:50 pm66 °FLight rain. More clouds than sun.7 mph88%29.89 "HgN/A
12:20 pm66 °FLight rain. Broken clouds.8 mph83%29.92 "HgN/A
11:50 am66 °FMostly cloudy.8 mph83%29.92 "HgN/A
11:30 am66 °FLight rain. Mostly cloudy.8 mph88%29.92 "HgN/A
11:20 am66 °FLight rain. Cloudy.8 mph88%29.92 "HgN/A
10:58 am66 °FPartly sunny.8 mph88%29.92 "HgN/A
10:50 am66 °FBroken clouds.9 mph88%29.92 "HgN/A
10:20 am64 °FBroken clouds.9 mph88%29.92 "HgN/A
9:50 am64 °FBroken clouds.8 mph88%29.92 "HgN/A
9:20 am63 °FMostly cloudy.6 mph94%29.95 "HgN/A
8:50 am63 °FBroken clouds.5 mph94%29.92 "HgN/A
8:20 am63 °FMostly cloudy.7 mph94%29.92 "HgN/A
7:50 am63 °FMostly cloudy.9 mph88%29.92 "HgN/A
7:20 am63 °FSprinkles. Broken clouds.7 mph94%29.92 "Hg6 mi
7:06 am63 °FRain showers. Broken clouds.8 mph94%29.95 "Hg4 mi
6:50 am63 °FRain showers. Broken clouds.7 mph94%29.92 "Hg6 mi
6:27 am64 °FLight rain. Broken clouds.6 mph88%29.92 "HgN/A
6:22 am64 °FRain. Mostly cloudy.6 mph88%29.95 "Hg5 mi
5:50 am64 °FLight rain. Partly cloudy.7 mph88%29.95 "HgN/A
5:20 am64 °FLight rain. Clear.9 mph88%29.92 "HgN/A
4:50 am64 °FClear.7 mph88%29.95 "Hg10 mi
4:20 am63 °FClear.6 mph94%29.95 "Hg10 mi
3:50 am63 °FClear.7 mph94%29.95 "Hg10 mi
3:20 am64 °FClear.8 mph88%29.95 "Hg10 mi
Weather by CustomWeather, © 2017

See weather overviewHow to use our weather pages